TimePST,TemperatureF,Dew PointF,Humidity,Sea Level PressureIn,VisibilityMPH,Wind Direction,Wind SpeedMPH,Gust SpeedMPH,PrecipitationIn,Events,Conditions,WindDirDegrees,DateUTC
12:15 AM,46.4,41.0,81,30.25,10.0,Calm,Calm,-,N/A,,Clear,0,2013-02-14 08:15:00
12:35 AM,46.4,41.0,81,30.25,10.0,Calm,Calm,-,N/A,,Clear,0,2013-02-14 08:35:00
12:55 AM,44.6,41.0,87,30.25,10.0,Calm,Calm,-,N/A,,Clear,0,2013-02-14 08:55:00
1:15 AM,44.6,41.0,87,30.24,10.0,SSW,3.5,-,N/A,,Clear,210,2013-02-14 09:15:00
1:35 AM,44.6,41.0,87,30.25,10.0,Calm,Calm,-,N/A,,Clear,0,2013-02-14 09:35:00
1:55 AM,44.6,41.0,87,30.25,10.0,Calm,Calm,-,N/A,,Clear,0,2013-02-14 09:55:00
2:15 AM,44.6,39.2,81,30.25,10.0,Calm,Calm,-,N/A,,Clear,0,2013-02-14 10:15:00
2:35 AM,44.6,41.0,87,30.25,10.0,Calm,Calm,-,N/A,,Clear,0,2013-02-14 10:35:00
2:55 AM,44.6,39.2,81,30.24,10.0,Calm,Calm,-,N/A,,Scattered Clouds,0,2013-02-14 10:55:00
3:15 AM,42.8,39.2,87,30.24,10.0,Calm,Calm,-,N/A,,Scattered Clouds,0,2013-02-14 11:15:00
3:35 AM,42.8,39.2,87,30.23,10.0,Calm,Calm,-,N/A,,Scattered Clouds,0,2013-02-14 11:35:00
3:55 AM,41.0,39.2,93,30.23,10.0,Calm,Calm,-,N/A,,Mostly Cloudy,0,2013-02-14 11:55:00
4:15 AM,41.0,39.2,93,30.24,10.0,Calm,Calm,-,N/A,,Mostly Cloudy,0,2013-02-14 12:15:00
4:35 AM,41.0,39.2,93,30.23,10.0,South,3.5,-,N/A,,Mostly Cloudy,180,2013-02-14 12:35:00
4:55 AM,41.0,39.2,93,30.23,10.0,South,3.5,-,N/A,,Mostly Cloudy,190,2013-02-14 12:55:00
5:15 AM,42.8,41.0,93,30.23,10.0,Calm,Calm,-,N/A,,Overcast,0,2013-02-14 13:15:00
5:35 AM,41.0,39.2,93,30.24,10.0,Calm,Calm,-,N/A,,Overcast,0,2013-02-14 13:35:00
5:55 AM,42.8,41.0,93,30.23,10.0,Calm,Calm,-,N/A,,Overcast,0,2013-02-14 13:55:00
6:15 AM,42.8,41.0,93,30.23,10.0,Calm,Calm,-,N/A,,Overcast,0,2013-02-14 14:15:00
6:35 AM,42.8,41.0,93,30.24,10.0,Calm,Calm,-,N/A,,Overcast,0,2013-02-14 14:35:00
6:47 AM,41.0,39.2,93,30.24,10.0,Calm,Calm,-,N/A,,Scattered Clouds,0,2013-02-14 14:47:00
6:55 AM,42.8,41.0,93,30.24,10.0,SE,3.5,-,N/A,,Mostly Cloudy,130,2013-02-14 14:55:00
7:47 AM,42.8,39.2,87,30.25,8.0,Calm,Calm,-,N/A,Fog,Scattered Clouds,0,2013-02-14 15:47:00
8:47 AM,48.2,42.8,82,30.26,10.0,Calm,Calm,-,N/A,,Partly Cloudy,0,2013-02-14 16:47:00
9:47 AM,55.4,46.4,72,30.25,10.0,ESE,3.5,-,N/A,,Clear,120,2013-02-14 17:47:00
10:55 AM,62.6,39.2,42,30.25,10.0,Calm,Calm,-,N/A,,Clear,0,2013-02-14 18:55:00
11:49 AM,62.6,41.0,45,30.24,10.0,Variable,3.5,-,N/A,,Clear,0,2013-02-14 19:49:00
12:47 PM,64.4,41.0,42,30.22,10.0,Variable,3.5,-,N/A,,Clear,0,2013-02-14 20:47:00
2:50 PM,68.0,39.2,35,30.18,10.0,Variable,3.5,-,N/A,,Clear,0,2013-02-14 22:50:00
3:50 PM,66.2,41.0,40,30.17,10.0,Variable,3.5,-,N/A,,Clear,0,2013-02-14 23:50:00
4:50 PM,64.4,42.8,45,30.17,10.0,Calm,Calm,-,N/A,,Clear,0,2013-02-15 00:50:00
5:47 PM,66.2,41.0,40,30.17,10.0,WNW,3.5,-,N/A,,Clear,300,2013-02-15 01:47:00
7:47 PM,57.2,42.8,59,30.20,10.0,Calm,Calm,-,N/A,,Clear,0,2013-02-15 03:47:00
8:47 PM,55.4,42.8,63,30.20,10.0,South,3.5,-,N/A,,Clear,180,2013-02-15 04:47:00
9:15 PM,53.6,41.0,62,30.21,10.0,Calm,Calm,-,N/A,,Clear,0,2013-02-15 05:15:00
9:35 PM,53.6,41.0,62,30.21,10.0,SW,3.5,-,N/A,,Clear,220,2013-02-15 05:35:00
9:55 PM,53.6,41.0,62,30.21,10.0,Calm,Calm,-,N/A,,Clear,0,2013-02-15 05:55:00
10:15 PM,53.6,44.6,72,30.21,10.0,Calm,Calm,-,N/A,,Clear,0,2013-02-15 06:15:00
10:35 PM,51.8,44.6,76,30.21,10.0,Calm,Calm,-,N/A,,Clear,0,2013-02-15 06:35:00
10:55 PM,51.8,46.4,82,30.22,10.0,Calm,Calm,-,N/A,,Clear,0,2013-02-15 06:55:00
11:15 PM,50.0,44.6,82,30.22,10.0,Calm,Calm,-,N/A,,Clear,0,2013-02-15 07:15:00
11:35 PM,50.0,42.8,76,30.22,10.0,Calm,Calm,-,N/A,,Clear,0,2013-02-15 07:35:00
11:55 PM,50.0,44.6,82,30.22,10.0,Calm,Calm,-,N/A,,Clear,0,2013-02-15 07:55:00